Regional Weather Roundup
Issued by NWS

Home | Current Version | Previous Version | Graphics & Text | Print | Product List | Glossary On
Versions: 1 2 3 4 5 6 7 8 9 10 11 12 13 14 15 16 17 18 19 20 21 22 23 24 25 26 27 28 29 30 31 32 33 34 35 36 37 38 39 40 41 42 43 44 45 46 47 48 49 50
000
ASUS43 KDMX 060608
RWRIA

WEATHER ROUNDUP FOR IOWA
NATIONAL WEATHER SERVICE DES MOINES IA
1200 AM CST SAT FEB 06 2016

NOTE: "FAIR" INDICATES FEW OR NO CLOUDS BELOW 12,000 FEET WITH NO
SIGNIFICANT WEATHER AND/OR OBSTRUCTIONS TO VISIBILITY.

* - THESE STATIONS ARE NOT NWS STATIONS...THUS NOT UNDER NWS
QUALITY CONTROL.  THEY ALSO DO NOT REPORT WEATHER SUCH
AS PRECIPITATION OR FOG.

IAZ001>003-012>014-020>022-031>034-043>046-060700-
   NORTHWEST IOWA

CITY           SKY/WX    TMP DP  RH WIND       PRES   REMARKS
CARROLL *      CLOUDY    30  30 100 SW8       30.22S FOG     WCI  23
CHEROKEE *     CLOUDY    28  28  99 W3        30.22S
DENISON *      CLOUDY    28  27  93 CALM      30.21S FOG
LE MARS *      CLOUDY    28  30 100 NW6       30.24S WCI  22
ORANGE CITY *  CLOUDY    27  25  93 NW6       30.21S WCI  20
SHELDON *      MOCLDY    25  25 100 W6        30.19S WCI  18
SIOUX CITY     CLOUDY    31  27  85 NW12      30.24S WCI  22
6HR MIN TEMP:  27; 6HR MAX TEMP:  32;

SPENCER        CLOUDY    26  23  88 W6        30.20S FOG     WCI  19
6HR MIN TEMP:  26; 6HR MAX TEMP:  27;

STORM LAKE *   CLOUDY    27  27 100 W8        30.20S FOG     WCI  18
$$

IAZ055>058-069>071-079>083-090>094-060700-
   SOUTHWEST IOWA

CITY           SKY/WX    TMP DP  RH WIND       PRES   REMARKS
ATLANTIC *     CLOUDY    27  27 100 CALM      30.24S FOG
AUDUBON *      CLOUDY    28  27  93 SW6       30.24S FOG     WCI  22
CLARINDA *     CLOUDY    23  23 100 CALM      30.27F FOG
COUNCIL BLFS * CLOUDY    28  28 100 SW5       30.24S FOG     WCI  23
CRESTON *      CLOUDY    27  25  93 CALM      30.25F FOG
HARLAN  *      CLOUDY    27  27 100 S3        30.27S FOG
LAMONI         CLOUDY    28  24  85 S6        30.25S WCI  22
6HR MIN TEMP:  27; 6HR MAX TEMP:  31; 6HR PCP: TRACE;

RED OAK *      CLOUDY    28  28 100 CALM      30.26S FOG
SHENANDOAH *   CLOUDY    27  27 100 CALM      30.27S FOG
$$

IAZ047>049-059>061-072>074-084-060700-
   CENTRAL IOWA

CITY           SKY/WX    TMP DP  RH WIND       PRES   REMARKS
AMES           CLOUDY    29  26  89 S6        30.25S WCI  23
6HR MIN TEMP:  26; 6HR MAX TEMP:  29; 6HR PCP: TRACE;

ANKENY *       CLOUDY    30  28  93 S5        30.26S WCI  25
BOONE *        CLOUDY    28  28 100 SW5       30.22S WCI  23
CHARITON *     CLOUDY    27  23  86 CALM      30.26S
DES MOINES     CLOUDY    31  25  78 SW5       30.26R WCI  26
6HR MIN TEMP:  29; 6HR MAX TEMP:  31; 6HR PCP:  0.01;

GRINNELL*      CLOUDY    29  24  82 S5        30.26S WCI  24
KNOXVILLE *    CLOUDY    30  25  80 S7        30.26S WCI  23
MARSHALLTOWN   CLOUDY    28  24  85 S7        30.25S WCI  21
6HR MIN TEMP:  25; 6HR MAX TEMP:  28; 6HR PCP: TRACE;

NEWTON *       CLOUDY    28  28 100 S8        30.26S WCI  20
PELLA *        CLOUDY    31  24  78 S3        30.29S
$$

IAZ004>006-015-016-023>025-035-036-060700-
   NORTH CENTRAL IOWA

CITY           SKY/WX    TMP DP  RH WIND       PRES   REMARKS
ALGONA *       CLOUDY    28  27  93 SW8       30.20S FOG     WCI  20
CLARION *      CLOUDY    27  27 100 S9        30.22S WCI  17
ESTHERVILLE    CLOUDY    26  25  96 NW12      30.19S FOG     WCI  16
6HR MIN TEMP:  23; 6HR MAX TEMP:  26;

FORT DODGE *   CLOUDY    28  25  86 S5        30.22F WCI  23
MASON CITY     CLOUDY    25  25 100 SW10      30.21F FOG     WCI  15
6HR MIN TEMP:  22; 6HR MAX TEMP:  25; 6HR PCP: TRACE;

FOREST CITY *  CLOUDY    27  27 100 SW8       30.21R FOG     WCI  18
WEBSTER CITY * CLOUDY    28  27  93 S9        30.21S WCI  20
IOWA FALLS *   CLOUDY    28  26  94 S10       30.23F WCI  18
$$

IAZ007>011-017>019-026>030-037>042-050>054-066-060700-
   NORTHEAST IOWA

CITY           SKY/WX    TMP DP  RH WIND       PRES   REMARKS
CEDAR RAPIDS   CLOUDY    27  23  85 S6        30.27F WCI  20
6HR MIN TEMP:  27; 6HR MAX TEMP:  28;

CHARLES CITY * CLOUDY    25  25 100 S12       30.22F WCI  14
CLINTON *      CLOUDY    28  24  85 S5        30.31F WCI  23
DECORAH *      CLOUDY    25  23  93 VRB7G15   30.21F WCI  17
DUBUQUE        CLOUDY    26  22  84 SW8       30.27S WCI  18
6HR MIN TEMP:  24; 6HR MAX TEMP:  26;

MONTICELLO *   CLOUDY    28  23  80 S5        30.28F WCI  23
OELWEIN *      CLOUDY    27  23  86 S10       30.24F WCI  17
WATERLOO       CLOUDY    27  22  81 S9        30.25F WCI  18
6HR MIN TEMP:  24; 6HR MAX TEMP:  27; 6HR PCP: TRACE;

$$

IAZ064-065-067-068-078-060700-
   EAST CENTRAL IOWA

CITY           SKY/WX    TMP DP  RH WIND       PRES   REMARKS
DAVENPORT      CLOUDY    28  21  75 S7        30.30F WCI  21
6HR MIN TEMP:  26; 6HR MAX TEMP:  30;

IOWA CITY      CLOUDY    27  23  85 CALM      30.31S
6HR MIN TEMP:  26; 6HR MAX TEMP:  29;

MT. PLEASANT * CLOUDY    31  26  81 CALM      30.30S
MUSCATINE *    CLOUDY    30  25  80 S3        30.32S
QUAD CITIES    CLOUDY    29  22  75 SW3       30.30F
6HR MIN TEMP:  26; 6HR MAX TEMP:  30;

$$

IAZ062-063-075>077-085>089-095>099-060700-
   SOUTHEAST IOWA

CITY           SKY/WX    TMP DP  RH WIND       PRES   REMARKS
BURLINGTON     CLOUDY    28  23  81 CALM      30.29F
6HR MIN TEMP:  24; 6HR MAX TEMP:  30;

FAIRFIELD *    CLOUDY    30  21  69 S6        30.29S WCI  24
FORT MADISON * CLOUDY    28  25  86 S5        30.31S WCI  23
KEOKUK *       CLOUDY    30  23  74 S3        30.29F
OSKALOOSA *    CLOUDY    29  25  83 S5        30.28S WCI  24
CENTERVILLE *    N/A    N/A N/A N/A MISG        N/A
OTTUMWA        CLOUDY    30  22  72 S5        30.28S WCI  25
6HR MIN TEMP:  30; 6HR MAX TEMP:  30;

WASHINGTON *   CLOUDY    28  25  86 S7        30.31R WCI  21
$$

ABBREVIATIONS USED IN REMARKS
   TC - TEMPERATURES IN CELSIUS
  WCI - WIND CHILL INDEX
   HX - HEAT INDEX
  VSB - VISIBILITY
$$




USA.gov is the U.S. government's official web portal to all federal, state and local government web resources and services.